Year,Month,Day,Hour,Minute,Value (Times are PST for temperature in C)
2016,04,18,00,00,9.80
2016,04,18,00,07,9.70
2016,04,18,00,08,9.60
2016,04,18,00,09,9.60
2016,04,18,00,10,9.60
2016,04,18,00,11,9.60
2016,04,18,00,12,9.60
2016,04,18,00,13,9.60
2016,04,18,00,14,9.60
2016,04,18,00,15,9.60
2016,04,18,00,16,9.60
2016,04,18,00,17,9.60
2016,04,18,00,18,9.60
2016,04,18,00,19,9.60
2016,04,18,00,20,9.60
2016,04,18,00,21,9.60
2016,04,18,00,22,9.60
2016,04,18,00,23,9.60
2016,04,18,00,24,9.60
2016,04,18,00,25,9.60
2016,04,18,00,26,9.60
2016,04,18,00,27,9.60
2016,04,18,00,28,9.60
2016,04,18,00,29,9.50
2016,04,18,00,30,9.50
2016,04,18,00,31,9.50
2016,04,18,00,32,9.50
2016,04,18,00,33,9.50
2016,04,18,00,34,9.50
2016,04,18,00,35,9.50
2016,04,18,00,36,9.40
2016,04,18,00,37,9.40
2016,04,18,00,38,9.40
2016,04,18,00,39,9.40
2016,04,18,00,40,9.40
2016,04,18,00,41,9.40
2016,04,18,00,42,9.40
2016,04,18,00,43,9.40
2016,04,18,00,44,9.40
2016,04,18,00,45,9.40
2016,04,18,00,46,9.40
2016,04,18,00,47,9.40
2016,04,18,00,48,9.30
2016,04,18,00,49,9.30
2016,04,18,00,50,9.30
2016,04,18,00,51,9.30
2016,04,18,00,52,9.30
2016,04,18,00,53,9.30
2016,04,18,00,54,9.30
2016,04,18,00,55,9.30
2016,04,18,00,56,9.30
2016,04,18,00,57,9.30
2016,04,18,00,58,9.30
2016,04,18,00,59,9.30
2016,04,18,01,00,9.30
2016,04,18,01,01,9.30
2016,04,18,01,02,9.30
2016,04,18,01,03,9.30
2016,04,18,01,04,9.30
2016,04,18,01,05,9.30
2016,04,18,01,06,9.30
2016,04,18,01,07,9.30
2016,04,18,01,08,9.30
2016,04,18,01,09,9.30
2016,04,18,01,10,9.30
2016,04,18,01,11,9.30
2016,04,18,01,12,9.30
2016,04,18,01,13,9.30
2016,04,18,01,14,9.20
2016,04,18,01,15,9.20
2016,04,18,01,16,9.20
2016,04,18,01,17,9.20
2016,04,18,01,18,9.30
2016,04,18,01,19,9.30
2016,04,18,01,20,9.30
2016,04,18,01,21,9.30
2016,04,18,01,22,9.30
2016,04,18,01,23,9.20
2016,04,18,01,24,9.20
2016,04,18,01,25,9.20
2016,04,18,01,26,9.20
2016,04,18,01,27,9.20
2016,04,18,01,28,9.20
2016,04,18,01,29,9.20
2016,04,18,01,30,9.20
2016,04,18,01,31,9.20
2016,04,18,01,32,9.20
2016,04,18,01,33,9.20
2016,04,18,01,34,9.20
2016,04,18,01,35,9.10
2016,04,18,01,36,9.10
2016,04,18,01,37,9.10
2016,04,18,01,38,9.10
2016,04,18,01,39,9.10
2016,04,18,01,40,9.10
2016,04,18,01,41,9.10
2016,04,18,01,42,9.10
2016,04,18,01,43,9.10
2016,04,18,01,44,9.10
2016,04,18,01,45,9.10
2016,04,18,01,46,9.10
2016,04,18,01,47,9.10
2016,04,18,01,48,9.10
2016,04,18,01,49,9.10
2016,04,18,01,50,9.10
2016,04,18,01,51,9.00
2016,04,18,01,52,9.00
2016,04,18,01,53,9.10
2016,04,18,01,54,9.10
2016,04,18,01,55,9.10
2016,04,18,01,56,9.10
2016,04,18,01,57,9.10
2016,04,18,01,58,9.00
2016,04,18,01,59,9.00
2016,04,18,02,00,9.00
2016,04,18,02,01,9.00
2016,04,18,02,02,9.00
2016,04,18,02,03,9.00
2016,04,18,02,04,8.90
2016,04,18,02,05,9.00
2016,04,18,02,06,9.00
2016,04,18,02,07,9.00
2016,04,18,02,08,9.00
2016,04,18,02,09,9.00
2016,04,18,02,10,9.00
2016,04,18,02,11,9.00
2016,04,18,02,12,9.00
2016,04,18,02,13,8.90
2016,04,18,02,14,8.90
2016,04,18,02,15,8.90
2016,04,18,02,16,8.90
2016,04,18,02,17,8.90
2016,04,18,02,18,8.90
2016,04,18,02,19,9.00
2016,04,18,02,20,9.00
2016,04,18,02,21,9.00
2016,04,18,02,22,9.00
2016,04,18,02,23,9.00
2016,04,18,02,24,9.00
2016,04,18,02,25,9.00
2016,04,18,02,26,8.90
2016,04,18,02,27,8.90
2016,04,18,02,28,8.90
2016,04,18,02,29,8.90
2016,04,18,02,30,8.90
2016,04,18,02,31,8.90
2016,04,18,02,32,8.90
2016,04,18,02,33,8.90
2016,04,18,02,34,8.80
2016,04,18,02,35,8.80
2016,04,18,02,36,8.80
2016,04,18,02,37,8.80
2016,04,18,02,38,8.80
2016,04,18,02,39,8.80
2016,04,18,02,40,8.80
2016,04,18,02,41,8.90
2016,04,18,02,42,8.90
2016,04,18,02,43,8.90
2016,04,18,02,44,8.90
2016,04,18,02,45,8.90
2016,04,18,02,46,8.90
2016,04,18,02,47,8.90
2016,04,18,02,48,8.90
2016,04,18,02,49,8.90
2016,04,18,02,50,8.90
2016,04,18,02,51,8.80
2016,04,18,02,52,8.80
2016,04,18,02,53,8.80
2016,04,18,02,54,8.80
2016,04,18,02,55,8.80
2016,04,18,02,56,8.90
2016,04,18,02,57,8.90
2016,04,18,02,58,8.90
2016,04,18,02,59,8.90
2016,04,18,03,00,8.90
2016,04,18,03,01,8.90
2016,04,18,03,02,8.80
2016,04,18,03,03,8.80
2016,04,18,03,04,8.80
2016,04,18,03,05,8.80
2016,04,18,03,06,8.80
2016,04,18,03,07,8.80
2016,04,18,03,08,8.80
2016,04,18,03,09,8.80
2016,04,18,03,10,8.90
2016,04,18,03,11,8.80
2016,04,18,03,12,8.80
2016,04,18,03,13,8.90
2016,04,18,03,14,8.90
2016,04,18,03,15,8.90
2016,04,18,03,16,8.80
2016,04,18,03,17,8.80
2016,04,18,03,18,8.90
2016,04,18,03,19,8.90
2016,04,18,03,20,8.90
2016,04,18,03,21,8.90
2016,04,18,03,22,8.90
2016,04,18,03,23,8.80
2016,04,18,03,24,8.80
2016,04,18,03,25,8.80
2016,04,18,03,26,8.80
2016,04,18,03,27,8.80
2016,04,18,03,28,8.80
2016,04,18,03,29,8.80
2016,04,18,03,30,8.80
2016,04,18,03,31,8.80
2016,04,18,03,32,8.70
2016,04,18,03,33,8.70
2016,04,18,03,34,8.70
2016,04,18,03,35,8.70
2016,04,18,03,36,8.70
2016,04,18,03,37,8.70
2016,04,18,03,38,8.70
2016,04,18,03,39,8.70
2016,04,18,03,40,8.70
2016,04,18,03,41,8.70
2016,04,18,03,42,8.70
2016,04,18,03,43,8.70
2016,04,18,03,44,8.70
2016,04,18,03,45,8.70
2016,04,18,03,46,8.70
2016,04,18,03,47,8.70
2016,04,18,03,48,8.70
2016,04,18,03,49,8.70
2016,04,18,03,50,8.70
2016,04,18,03,51,8.70
2016,04,18,03,52,8.70
2016,04,18,03,53,8.70
2016,04,18,03,54,8.70
2016,04,18,03,55,8.70
2016,04,18,03,56,8.70
2016,04,18,03,57,8.70
2016,04,18,03,58,8.70
2016,04,18,03,59,8.70
2016,04,18,04,00,8.70
2016,04,18,04,01,8.70
2016,04,18,04,02,8.70
2016,04,18,04,03,8.70
2016,04,18,04,04,8.60
2016,04,18,04,05,8.60
2016,04,18,04,06,8.60
2016,04,18,04,07,8.60
2016,04,18,04,08,8.60
2016,04,18,04,09,8.60
2016,04,18,04,10,8.60
2016,04,18,04,11,8.60
2016,04,18,04,12,8.60
2016,04,18,04,13,8.60
2016,04,18,04,14,8.70
2016,04,18,04,15,8.70
2016,04,18,04,16,8.70
2016,04,18,04,17,8.70
2016,04,18,04,18,8.70
2016,04,18,04,19,8.70
2016,04,18,04,20,8.70
2016,04,18,04,21,8.70
2016,04,18,04,22,8.70
2016,04,18,04,23,8.70
2016,04,18,04,24,8.70
2016,04,18,04,25,8.70
2016,04,18,04,26,8.70
2016,04,18,04,27,8.70
2016,04,18,04,28,8.70
2016,04,18,04,29,8.70
2016,04,18,04,30,8.70
2016,04,18,04,31,8.80
2016,04,18,04,32,8.80
2016,04,18,04,33,8.80
2016,04,18,04,34,8.80
2016,04,18,04,35,8.80
2016,04,18,04,36,8.80
2016,04,18,04,37,8.80
2016,04,18,04,38,8.80
2016,04,18,04,39,8.80
2016,04,18,04,40,8.80
2016,04,18,04,41,8.80
2016,04,18,04,42,8.80
2016,04,18,04,43,8.80
2016,04,18,04,44,8.80
2016,04,18,04,45,8.70
2016,04,18,04,46,8.70
2016,04,18,04,47,8.70
2016,04,18,04,48,8.70
2016,04,18,04,49,8.70
2016,04,18,04,50,8.70
2016,04,18,04,51,8.70
2016,04,18,04,52,8.70
2016,04,18,04,53,8.70
2016,04,18,04,54,8.80
2016,04,18,04,55,8.80
2016,04,18,04,56,8.80
2016,04,18,04,57,8.80
2016,04,18,04,58,8.70
2016,04,18,04,59,8.70
2016,04,18,05,00,8.70
2016,04,18,05,01,8.70
2016,04,18,05,02,8.70
2016,04,18,05,03,8.70
2016,04,18,05,04,8.70
2016,04,18,05,05,8.70
2016,04,18,05,06,8.70
2016,04,18,05,07,8.70
2016,04,18,05,08,8.70
2016,04,18,05,09,8.70
2016,04,18,05,10,8.70
2016,04,18,05,11,8.70
2016,04,18,05,12,8.70
2016,04,18,05,13,8.70
2016,04,18,05,14,8.70
2016,04,18,05,15,8.70
2016,04,18,05,16,8.70
2016,04,18,05,17,8.70
2016,04,18,05,18,8.70
2016,04,18,05,19,8.70
2016,04,18,05,20,8.70
2016,04,18,05,21,8.80
2016,04,18,05,22,8.80
2016,04,18,05,23,8.80
2016,04,18,05,24,8.80
2016,04,18,05,25,8.70
2016,04,18,05,26,8.70
2016,04,18,05,27,8.70
2016,04,18,05,28,8.70
2016,04,18,05,29,8.70
2016,04,18,05,30,8.70
2016,04,18,05,31,8.70
2016,04,18,05,32,8.70
2016,04,18,05,33,8.70
2016,04,18,05,34,8.70
2016,04,18,05,35,8.70
2016,04,18,05,36,8.70
2016,04,18,05,37,8.70
2016,04,18,05,38,8.70
2016,04,18,05,39,8.70
2016,04,18,05,40,8.70
2016,04,18,05,41,8.70
2016,04,18,05,42,8.70
2016,04,18,05,43,8.70
2016,04,18,05,44,8.70
2016,04,18,05,45,8.70
2016,04,18,05,46,8.60
2016,04,18,05,47,8.70
2016,04,18,05,48,8.60
2016,04,18,05,49,8.60
2016,04,18,05,50,8.60
2016,04,18,05,51,8.60
2016,04,18,05,52,8.60
2016,04,18,05,53,8.60
2016,04,18,05,54,8.50
2016,04,18,05,55,8.50
2016,04,18,05,56,8.50
2016,04,18,05,57,8.50
2016,04,18,05,58,8.50
2016,04,18,05,59,8.50
2016,04,18,06,00,8.50
2016,04,18,06,01,8.50
2016,04,18,06,02,8.50
2016,04,18,06,03,8.50
2016,04,18,06,04,8.50
2016,04,18,06,05,8.50
2016,04,18,06,06,8.50
2016,04,18,06,07,8.50
2016,04,18,06,08,8.50
2016,04,18,06,09,8.50
2016,04,18,06,10,8.50
2016,04,18,06,11,8.50
2016,04,18,06,12,8.50
2016,04,18,06,13,8.50
2016,04,18,06,14,8.40
2016,04,18,06,15,8.40
2016,04,18,06,16,8.40
2016,04,18,06,17,8.40
2016,04,18,06,18,8.40
2016,04,18,06,19,8.40
2016,04,18,06,20,8.40
2016,04,18,06,21,8.40
2016,04,18,06,22,8.40
2016,04,18,06,23,8.40
2016,04,18,06,24,8.40
2016,04,18,06,25,8.30
2016,04,18,06,26,8.30
2016,04,18,06,27,8.30
2016,04,18,06,28,8.30
2016,04,18,06,29,8.30
2016,04,18,06,30,8.30
2016,04,18,06,31,8.30
2016,04,18,06,32,8.30
2016,04,18,06,33,8.30
2016,04,18,06,34,8.30
2016,04,18,06,35,8.30
2016,04,18,06,36,8.30
2016,04,18,06,37,8.30
2016,04,18,06,38,8.30
2016,04,18,06,39,8.30
2016,04,18,06,40,8.30
2016,04,18,06,41,8.30
2016,04,18,06,42,8.30
2016,04,18,06,43,8.30
2016,04,18,06,44,8.30
2016,04,18,06,45,8.30
2016,04,18,06,46,8.30
2016,04,18,06,47,8.30
2016,04,18,06,48,8.30
2016,04,18,06,49,8.30
2016,04,18,06,50,8.30
2016,04,18,06,51,8.40
2016,04,18,06,52,8.40
2016,04,18,06,53,8.40
2016,04,18,06,54,8.40
2016,04,18,06,55,8.40
2016,04,18,06,56,8.40
2016,04,18,06,57,8.40
2016,04,18,06,58,8.50
2016,04,18,06,59,8.50
2016,04,18,07,00,8.50
2016,04,18,07,01,8.50
2016,04,18,07,02,8.50
2016,04,18,07,03,8.60
2016,04,18,07,04,8.60
2016,04,18,07,05,8.60
2016,04,18,07,06,8.60
2016,04,18,07,07,8.60
2016,04,18,07,08,8.70
2016,04,18,07,09,8.70
2016,04,18,07,10,8.70
2016,04,18,07,11,8.80
2016,04,18,07,12,8.80
2016,04,18,07,13,8.80
2016,04,18,07,14,8.80
2016,04,18,07,15,8.80
2016,04,18,07,16,8.90
2016,04,18,07,17,8.90
2016,04,18,07,18,8.90
2016,04,18,07,19,8.90
2016,04,18,07,20,8.90
2016,04,18,07,21,9.00
2016,04,18,07,22,9.00
2016,04,18,07,23,9.10
2016,04,18,07,24,9.10
2016,04,18,07,25,9.10
2016,04,18,07,26,9.20
2016,04,18,07,27,9.20
2016,04,18,07,28,9.20
2016,04,18,07,29,9.20
2016,04,18,07,30,9.30
2016,04,18,07,31,9.30
2016,04,18,07,32,9.30
2016,04,18,07,33,9.30
2016,04,18,07,34,9.40
2016,04,18,07,35,9.40
2016,04,18,07,36,9.50
2016,04,18,07,37,9.50
2016,04,18,07,38,9.60
2016,04,18,07,39,9.60
2016,04,18,07,40,9.60
2016,04,18,07,41,9.70
2016,04,18,07,42,9.70
2016,04,18,07,43,9.80
2016,04,18,07,44,9.80
2016,04,18,07,45,9.80
2016,04,18,07,46,9.80
2016,04,18,07,47,9.90
2016,04,18,07,48,9.90
2016,04,18,07,49,10.00
2016,04,18,07,50,10.10
2016,04,18,07,51,10.10
2016,04,18,07,52,10.20
2016,04,18,07,53,10.20
2016,04,18,07,54,10.30
2016,04,18,07,55,10.40
2016,04,18,07,56,10.50
2016,04,18,07,57,10.50
2016,04,18,07,58,10.60
2016,04,18,07,59,10.70
2016,04,18,08,00,10.80
2016,04,18,08,01,10.80
2016,04,18,08,02,10.90
2016,04,18,08,03,11.00
2016,04,18,08,04,11.00
2016,04,18,08,05,11.10
2016,04,18,08,06,11.20
2016,04,18,08,07,11.20
2016,04,18,08,08,11.20
2016,04,18,08,09,11.20
2016,04,18,08,10,11.20
2016,04,18,08,11,11.30
2016,04,18,08,12,11.30
2016,04,18,08,13,11.30
2016,04,18,08,14,11.40
2016,04,18,08,15,11.40
2016,04,18,08,16,11.50
2016,04,18,08,17,11.50
2016,04,18,08,18,11.60
2016,04,18,08,19,11.70
2016,04,18,08,20,11.80
2016,04,18,08,21,11.90
2016,04,18,08,22,12.00
2016,04,18,08,23,12.00
2016,04,18,08,24,12.10
2016,04,18,08,25,12.20
2016,04,18,08,26,12.30
2016,04,18,08,27,12.40
2016,04,18,08,28,12.40
2016,04,18,08,29,12.50
2016,04,18,08,30,12.50
2016,04,18,08,31,12.60
2016,04,18,08,32,12.60
2016,04,18,08,33,12.60
2016,04,18,08,34,12.70
2016,04,18,08,35,12.80
2016,04,18,08,36,12.80
2016,04,18,08,37,12.90
2016,04,18,08,38,12.90
2016,04,18,08,39,13.00
2016,04,18,08,40,13.10
2016,04,18,08,41,13.20
2016,04,18,08,42,13.20
2016,04,18,08,43,13.20
2016,04,18,08,44,13.30
2016,04,18,08,45,13.30
2016,04,18,08,46,13.30
2016,04,18,08,47,13.30
2016,04,18,08,48,13.30
2016,04,18,08,49,13.30
2016,04,18,08,50,13.30
2016,04,18,08,51,13.40
2016,04,18,08,52,13.40
2016,04,18,08,53,13.40
2016,04,18,08,54,13.40
2016,04,18,08,55,13.40
2016,04,18,08,56,13.40
2016,04,18,08,57,13.40
2016,04,18,08,58,13.40
2016,04,18,08,59,13.40
2016,04,18,09,00,13.40
2016,04,18,09,01,13.40
2016,04,18,09,02,13.40
2016,04,18,09,03,13.40
2016,04,18,09,04,13.40
2016,04,18,09,05,13.40
2016,04,18,09,06,13.40
2016,04,18,09,07,13.40
2016,04,18,09,08,13.50
2016,04,18,09,09,13.50
2016,04,18,09,10,13.50
2016,04,18,09,11,13.50
2016,04,18,09,12,13.50
2016,04,18,09,13,13.60
2016,04,18,09,14,13.60
2016,04,18,09,15,13.60
2016,04,18,09,16,13.60
2016,04,18,09,17,13.70
2016,04,18,09,18,13.70
2016,04,18,09,19,13.70
2016,04,18,09,20,13.70
2016,04,18,09,21,13.70
2016,04,18,09,22,13.70
2016,04,18,09,23,13.80
2016,04,18,09,24,13.80
2016,04,18,09,25,13.80
2016,04,18,09,26,13.80
2016,04,18,09,27,13.70
2016,04,18,09,28,13.70
2016,04,18,09,29,13.70
2016,04,18,09,30,13.70
2016,04,18,09,31,13.70
2016,04,18,09,32,13.70
2016,04,18,09,33,13.70
2016,04,18,09,34,13.80
2016,04,18,09,35,13.80
2016,04,18,09,36,13.80
2016,04,18,09,37,13.80
2016,04,18,09,38,13.80
2016,04,18,09,39,13.80
2016,04,18,09,40,13.90
2016,04,18,09,41,13.90
2016,04,18,09,42,13.90
2016,04,18,09,43,13.80
2016,04,18,09,44,13.80
2016,04,18,09,45,13.80
2016,04,18,09,46,13.80
2016,04,18,09,47,13.80
2016,04,18,09,48,13.80
2016,04,18,09,49,13.80
2016,04,18,09,50,13.90
2016,04,18,09,51,13.90
2016,04,18,09,52,13.90
2016,04,18,09,53,14.00
2016,04,18,09,54,14.10
2016,04,18,09,55,14.20
2016,04,18,09,56,14.30
2016,04,18,09,57,14.40
2016,04,18,09,58,14.40
2016,04,18,09,59,14.50
2016,04,18,10,00,14.60
2016,04,18,10,01,14.70
2016,04,18,10,02,14.90
2016,04,18,10,03,15.00
2016,04,18,10,04,15.10
2016,04,18,10,05,15.10
2016,04,18,10,06,15.20
2016,04,18,10,07,15.20
2016,04,18,10,08,15.20
2016,04,18,10,09,15.20
2016,04,18,10,10,15.10
2016,04,18,10,11,15.10
2016,04,18,10,12,15.00
2016,04,18,10,13,15.00
2016,04,18,10,14,15.00
2016,04,18,10,15,14.90
2016,04,18,10,16,14.90
2016,04,18,10,17,14.90
2016,04,18,10,18,14.90
2016,04,18,10,19,14.90
2016,04,18,10,20,14.90
2016,04,18,10,21,14.90
2016,04,18,10,22,14.90
2016,04,18,10,23,14.90
2016,04,18,10,24,14.90
2016,04,18,10,25,14.90
2016,04,18,10,26,14.90
2016,04,18,10,27,14.90
2016,04,18,10,28,14.90
2016,04,18,10,29,15.00
2016,04,18,10,30,15.00
2016,04,18,10,31,15.00
2016,04,18,10,32,14.90
2016,04,18,10,33,14.90
2016,04,18,10,34,14.80
2016,04,18,10,35,14.80
2016,04,18,10,36,14.80
2016,04,18,10,37,14.80
2016,04,18,10,38,14.80
2016,04,18,10,39,14.80
2016,04,18,10,40,14.90
2016,04,18,10,41,14.90
2016,04,18,10,42,14.80
2016,04,18,10,43,14.80
2016,04,18,10,44,14.90
2016,04,18,10,45,14.90
2016,04,18,10,46,14.90
2016,04,18,10,47,14.90
2016,04,18,10,48,14.90
2016,04,18,10,49,15.00
2016,04,18,10,50,15.00
2016,04,18,10,51,15.00
2016,04,18,10,52,15.00
2016,04,18,10,53,15.00
2016,04,18,10,54,15.00
2016,04,18,10,55,14.90
2016,04,18,10,56,14.90
2016,04,18,10,57,14.90
2016,04,18,10,58,15.00
2016,04,18,10,59,15.00
2016,04,18,11,00,15.00
2016,04,18,11,01,14.90
2016,04,18,11,02,14.90
2016,04,18,11,03,14.90
2016,04,18,11,04,14.90
2016,04,18,11,05,15.10
2016,04,18,11,06,15.30
2016,04,18,11,07,15.40
2016,04,18,11,08,15.60
2016,04,18,11,09,15.70
2016,04,18,11,10,15.70
2016,04,18,11,11,15.70
2016,04,18,11,12,15.70
2016,04,18,11,13,15.70
2016,04,18,11,14,15.70
2016,04,18,11,15,15.70
2016,04,18,11,16,15.70
2016,04,18,11,17,15.70
2016,04,18,11,18,15.80
2016,04,18,11,19,15.80
2016,04,18,11,20,15.90
2016,04,18,11,21,16.00
2016,04,18,11,22,16.10
2016,04,18,11,23,16.20
2016,04,18,11,24,16.10
2016,04,18,11,25,16.10
2016,04,18,11,26,16.10
2016,04,18,11,27,16.00
2016,04,18,11,28,16.00
2016,04,18,11,29,16.10
2016,04,18,11,30,16.10
2016,04,18,11,31,16.10
2016,04,18,11,32,16.20
2016,04,18,11,33,16.20
2016,04,18,11,34,16.40
2016,04,18,11,35,16.40
2016,04,18,11,36,16.40
2016,04,18,11,37,16.40
2016,04,18,11,38,16.40
2016,04,18,11,39,16.50
2016,04,18,11,40,16.60
2016,04,18,11,41,16.60
2016,04,18,11,42,16.60
2016,04,18,11,43,16.50
2016,04,18,11,44,16.50
2016,04,18,11,45,16.40
2016,04,18,11,46,16.40
2016,04,18,11,47,16.40
2016,04,18,11,48,16.40
2016,04,18,11,49,16.40
2016,04,18,11,50,16.40
2016,04,18,11,51,16.40
2016,04,18,11,52,16.40
2016,04,18,11,53,16.40
2016,04,18,11,54,16.30
2016,04,18,11,55,16.20
2016,04,18,11,56,16.20
2016,04,18,11,57,16.10
2016,04,18,11,58,16.10
2016,04,18,11,59,16.10
2016,04,18,12,00,16.00
2016,04,18,12,01,16.00
2016,04,18,12,02,16.00
2016,04,18,12,03,16.10
2016,04,18,12,04,16.20
2016,04,18,12,05,16.30
2016,04,18,12,06,16.40
2016,04,18,12,07,16.40
2016,04,18,12,08,16.50
2016,04,18,12,09,16.40
2016,04,18,12,10,16.40
2016,04,18,12,11,16.40
2016,04,18,12,12,16.50
2016,04,18,12,13,16.50
2016,04,18,12,14,16.70
2016,04,18,12,15,16.70
2016,04,18,12,16,16.60
2016,04,18,12,17,16.50
2016,04,18,12,18,16.40
2016,04,18,12,19,16.30
2016,04,18,12,20,16.20
2016,04,18,12,21,16.20
2016,04,18,12,22,16.10
2016,04,18,12,23,16.00
2016,04,18,12,24,15.90
2016,04,18,12,25,15.90
2016,04,18,12,26,15.80
2016,04,18,12,27,15.80
2016,04,18,12,28,15.90
2016,04,18,12,29,16.00
2016,04,18,12,30,16.10
2016,04,18,12,31,16.20
2016,04,18,12,32,16.30
2016,04,18,12,33,16.50
2016,04,18,12,34,16.70
2016,04,18,12,35,16.90
2016,04,18,12,36,16.90
2016,04,18,12,37,16.90
2016,04,18,12,38,16.90
2016,04,18,12,39,16.80
2016,04,18,12,40,16.70
2016,04,18,12,41,16.60
2016,04,18,12,42,16.60
2016,04,18,12,43,16.50
2016,04,18,12,44,16.60
2016,04,18,12,45,16.60
2016,04,18,12,46,16.60
2016,04,18,12,47,16.60
2016,04,18,12,48,16.60
2016,04,18,12,49,16.50
2016,04,18,12,50,16.50
2016,04,18,12,51,16.40
2016,04,18,12,52,16.30
2016,04,18,12,53,16.30
2016,04,18,12,54,16.30
2016,04,18,12,55,16.30
2016,04,18,12,56,16.30
2016,04,18,12,57,16.30
2016,04,18,12,58,16.30
2016,04,18,12,59,16.40
2016,04,18,13,00,16.40
2016,04,18,13,01,16.50
2016,04,18,13,02,16.50
2016,04,18,13,03,16.60
2016,04,18,13,04,16.50
2016,04,18,13,05,16.50
2016,04,18,13,06,16.50
2016,04,18,13,07,16.60
2016,04,18,13,08,16.60
2016,04,18,13,09,16.60
2016,04,18,13,10,16.60
2016,04,18,13,11,16.60
2016,04,18,13,12,16.60
2016,04,18,13,13,16.70
2016,04,18,13,14,16.70
2016,04,18,13,15,16.80
2016,04,18,13,16,16.80
2016,04,18,13,17,16.80
2016,04,18,13,18,16.80
2016,04,18,13,19,16.80
2016,04,18,13,20,16.80
2016,04,18,13,21,16.80
2016,04,18,13,22,16.90
2016,04,18,13,23,17.00
2016,04,18,13,24,17.10
2016,04,18,13,25,17.20
2016,04,18,13,26,17.30
2016,04,18,13,27,17.30
2016,04,18,13,28,17.30
2016,04,18,13,29,17.30
2016,04,18,13,30,17.30
2016,04,18,13,31,17.20
2016,04,18,13,32,17.20
2016,04,18,13,33,17.30
2016,04,18,13,34,17.30
2016,04,18,13,35,17.40
2016,04,18,13,36,17.30
2016,04,18,13,37,17.30
2016,04,18,13,38,17.30
2016,04,18,13,39,17.40
2016,04,18,13,40,17.60
2016,04,18,13,41,17.70
2016,04,18,13,42,17.80
2016,04,18,13,43,17.80
2016,04,18,13,44,17.90
2016,04,18,13,45,17.90
2016,04,18,13,46,17.80
2016,04,18,13,47,17.80
2016,04,18,13,48,17.80
2016,04,18,13,49,17.70
2016,04,18,13,50,17.60
2016,04,18,13,51,17.60
2016,04,18,13,52,17.70
2016,04,18,13,53,17.70
2016,04,18,13,54,17.80
2016,04,18,13,55,17.80
2016,04,18,13,56,17.80
2016,04,18,13,57,17.90
2016,04,18,13,58,18.00
2016,04,18,13,59,18.00
2016,04,18,14,00,18.00
2016,04,18,14,01,18.10
2016,04,18,14,02,18.20
2016,04,18,14,03,18.30
2016,04,18,14,04,18.30
2016,04,18,14,05,18.30
2016,04,18,14,06,18.20
2016,04,18,14,07,18.20
2016,04,18,14,08,18.10
2016,04,18,14,09,18.00
2016,04,18,14,10,18.00
2016,04,18,14,11,18.00
2016,04,18,14,12,18.00
2016,04,18,14,13,18.00
2016,04,18,14,14,18.00
2016,04,18,14,15,18.00
2016,04,18,14,16,18.10
2016,04,18,14,17,18.10
2016,04,18,14,18,18.20
2016,04,18,14,19,18.20
2016,04,18,14,20,18.20
2016,04,18,14,21,18.20
2016,04,18,14,22,18.20
2016,04,18,14,23,18.20
2016,04,18,14,24,18.10
2016,04,18,14,25,18.10
2016,04,18,14,26,18.00
2016,04,18,14,27,17.90
2016,04,18,14,28,17.90
2016,04,18,14,29,17.80
2016,04,18,14,30,17.80
2016,04,18,14,31,17.90
2016,04,18,14,32,18.00
2016,04,18,14,33,18.10
2016,04,18,14,34,18.20
2016,04,18,14,35,18.20
2016,04,18,14,36,18.40
2016,04,18,14,37,18.50
2016,04,18,14,38,18.70
2016,04,18,14,39,18.80
2016,04,18,14,40,18.80
2016,04,18,14,41,18.90
2016,04,18,14,42,19.00
2016,04,18,14,43,19.00
2016,04,18,14,44,19.10
2016,04,18,14,45,19.20
2016,04,18,14,46,19.20
2016,04,18,14,47,19.30
2016,04,18,14,48,19.30
2016,04,18,14,49,19.40
2016,04,18,14,50,19.50
2016,04,18,14,51,19.70
2016,04,18,14,52,19.80
2016,04,18,14,53,19.90
2016,04,18,14,54,20.00
2016,04,18,14,55,20.20
2016,04,18,14,56,20.30
2016,04,18,14,57,20.40
2016,04,18,14,58,20.50
2016,04,18,14,59,20.60
2016,04,18,15,00,20.60
2016,04,18,15,01,20.60
2016,04,18,15,02,20.60
2016,04,18,15,03,20.60
2016,04,18,15,04,20.60
2016,04,18,15,05,20.70
2016,04,18,15,06,20.70
2016,04,18,15,07,20.70
2016,04,18,15,08,20.70
2016,04,18,15,09,20.70
2016,04,18,15,10,20.70
2016,04,18,15,11,20.70
2016,04,18,15,12,20.70
2016,04,18,15,13,20.80
2016,04,18,15,14,20.80
2016,04,18,15,15,20.80
2016,04,18,15,16,20.80
2016,04,18,15,17,20.80
2016,04,18,15,18,20.90
2016,04,18,15,19,20.90
2016,04,18,15,20,21.00
2016,04,18,15,21,21.00
2016,04,18,15,22,21.10
2016,04,18,15,23,21.10
2016,04,18,15,24,21.10
2016,04,18,15,25,21.10
2016,04,18,15,26,21.20
2016,04,18,15,27,21.20
2016,04,18,15,28,21.20
2016,04,18,15,29,21.20
2016,04,18,15,30,21.20
2016,04,18,15,31,21.20
2016,04,18,15,32,21.20
2016,04,18,15,33,21.20
2016,04,18,15,34,21.20
2016,04,18,15,35,21.20
2016,04,18,15,36,21.30
2016,04,18,15,37,21.30
2016,04,18,15,38,21.40
2016,04,18,15,39,21.40
2016,04,18,15,40,21.30
2016,04,18,15,41,21.30
2016,04,18,15,42,21.30
2016,04,18,15,43,21.30
2016,04,18,15,44,21.30
2016,04,18,15,45,21.30
2016,04,18,15,46,21.30
2016,04,18,15,47,21.20
2016,04,18,15,48,21.20
2016,04,18,15,49,21.10
2016,04,18,15,50,21.00
2016,04,18,15,51,21.00
2016,04,18,15,52,21.00
2016,04,18,15,53,21.00
2016,04,18,15,54,21.00
2016,04,18,15,55,21.00
2016,04,18,15,56,21.00
2016,04,18,15,57,20.90
2016,04,18,15,58,21.00
2016,04,18,15,59,21.20
2016,04,18,16,00,21.40
2016,04,18,16,01,21.50
2016,04,18,16,02,21.50
2016,04,18,16,03,21.60
2016,04,18,16,04,21.50
2016,04,18,16,05,21.40
2016,04,18,16,06,21.20
2016,04,18,16,07,21.10
2016,04,18,16,08,20.90
2016,04,18,16,09,20.80
2016,04,18,16,10,20.70
2016,04,18,16,11,20.70
2016,04,18,16,12,20.70
2016,04,18,16,13,20.70
2016,04,18,16,14,20.70
2016,04,18,16,15,20.70
2016,04,18,16,16,20.80
2016,04,18,16,17,20.90
2016,04,18,16,18,21.00
2016,04,18,16,19,21.00
2016,04,18,16,20,21.10
2016,04,18,16,21,21.10
2016,04,18,16,22,21.10
2016,04,18,16,23,21.20
2016,04,18,16,24,21.20
2016,04,18,16,25,21.20
2016,04,18,16,26,21.20
2016,04,18,16,27,21.20
2016,04,18,16,28,21.20
2016,04,18,16,29,21.20
2016,04,18,16,30,21.20
2016,04,18,16,31,21.20
2016,04,18,16,32,21.20
2016,04,18,16,33,21.20
2016,04,18,16,34,21.30
2016,04,18,16,35,21.30
2016,04,18,16,36,21.30
2016,04,18,16,37,21.30
2016,04,18,16,38,21.30
2016,04,18,16,39,21.30
2016,04,18,16,40,21.30
2016,04,18,16,41,21.30
2016,04,18,16,42,21.30
2016,04,18,16,43,21.40
2016,04,18,16,44,21.40
2016,04,18,16,45,21.40
2016,04,18,16,46,21.50
2016,04,18,16,47,21.60
2016,04,18,16,48,21.70
2016,04,18,16,49,21.70
2016,04,18,16,50,21.80
2016,04,18,16,51,21.70
2016,04,18,16,52,21.70
2016,04,18,16,53,21.50
2016,04,18,16,54,21.40
2016,04,18,16,55,21.20
2016,04,18,16,56,21.00
2016,04,18,16,57,20.70
2016,04,18,16,58,20.60
2016,04,18,16,59,20.50
2016,04,18,17,00,20.40
2016,04,18,17,01,20.40
2016,04,18,17,02,20.40
2016,04,18,17,03,20.40
2016,04,18,17,04,20.40
2016,04,18,17,05,20.40
2016,04,18,17,06,20.40
2016,04,18,17,07,20.50
2016,04,18,17,08,20.50
2016,04,18,17,09,20.50
2016,04,18,17,10,20.60
2016,04,18,17,11,20.60
2016,04,18,17,12,20.60
2016,04,18,17,13,20.60
2016,04,18,17,14,20.60
2016,04,18,17,15,20.60
2016,04,18,17,16,20.70
2016,04,18,17,17,20.70
2016,04,18,17,18,20.70
2016,04,18,17,19,20.70
2016,04,18,17,20,20.80
2016,04,18,17,21,20.90
2016,04,18,17,22,20.90
2016,04,18,17,23,20.90
2016,04,18,17,24,20.90
2016,04,18,17,25,21.00
2016,04,18,17,26,21.10
2016,04,18,17,27,21.10
2016,04,18,17,28,21.20
2016,04,18,17,29,21.20
2016,04,18,17,30,21.30
2016,04,18,17,31,21.30
2016,04,18,17,32,21.20
2016,04,18,17,33,21.20
2016,04,18,17,34,21.20
2016,04,18,17,35,21.20
2016,04,18,17,36,21.20
2016,04,18,17,37,21.10
2016,04,18,17,38,21.10
2016,04,18,17,39,21.10
2016,04,18,17,40,21.10
2016,04,18,17,41,21.10
2016,04,18,17,42,21.00
2016,04,18,17,43,21.00
2016,04,18,17,44,20.90
2016,04,18,17,45,20.90